Home   Weather   Grand Junction   Past weeks

Flag for USA Past Weather in Grand Junction, Colorado, USA — Yesterday and Last 2 Weeks

Now
65 °F

Sunny.


Feels Like: 65 °F
Forecast: 46 / 75 °F
Wind: 3 mph from Northwest

Location: Walker Field

Current Time: Sep 25, 2016 at 7:59:06 PM

Latest Report: Sep 25, 2016 at 6:53 PM


Visibility: 10 mi

Pressure: 30.25 "Hg (25.67 "Hg at 1398m altitude)

Humidity: 40%

Dew Point: 40 °F

Location of Grand JunctionLocation

Past Weather in Grand Junction — Graph

°F

Grand Junction Temperature Yesterday

Maximum temperature yesterday: 58 °F (at 1:53 PM)
Minimum temperature yesterday: 46 °F (at 1:53 AM)
Average temperature yesterday: 52 °F

High & Low Weather Summary for the Past Weeks

 TemperatureHumidityPressure
High89 °F (Sep 22, 3:53 PM)93% (Sep 21, 10:53 PM)30.38 "Hg (Sep 21, 10:53 PM)
Low42 °F (Sep 25, 4:53 AM)7% (Sep 10, 6:53 PM)29.52 "Hg (Sep 23, 12:53 AM)
Average64 °F39%29.95 "Hg
* Reported Sep 10 6:53 PM — Sep 25 6:53 PM, Grand Junction, Weather by CustomWeather, © 2016

Note: Actual official high and low records may vary slightly from our data, if they occured in-between our weather recording intervals... More about our weather records

Advertising

Grand Junction Weather History for the Previous 24 Hours

Scroll right to see more
 ConditionsComfort  
Time TempWeatherWind HumidityBarometerVisibility
6:53 PM
Sun, Sep 25
65 °FSunny.3 mph40%30.25 "Hg10 mi
5:53 PM69 °FSunny.7 mph32%30.23 "Hg10 mi
4:53 PM69 °FSunny.12 mph33%30.24 "Hg10 mi
3:53 PM70 °FSunny.8 mph31%30.25 "Hg10 mi
2:53 PM67 °FSunny.5 mph33%30.27 "Hg10 mi
1:53 PM65 °FSunny.3 mph36%30.29 "Hg10 mi
12:53 PM63 °FSunny.No wind38%30.32 "Hg10 mi
11:53 AM60 °FSunny.6 mph46%30.36 "Hg10 mi
10:53 AM58 °FSunny.5 mph54%30.37 "Hg10 mi
9:53 AM53 °FSunny.3 mph61%30.38 "Hg10 mi
8:53 AM48 °FSunny.No wind74%30.37 "Hg10 mi
7:53 AM46 °FSunny.6 mph73%30.35 "Hg10 mi
6:53 AM42 °FClear.No wind82%30.36 "Hg10 mi
5:53 AM46 °FClear.3 mph71%30.32 "Hg10 mi
4:53 AM42 °FClear.5 mph85%30.33 "Hg10 mi
3:53 AM44 °FClear.5 mph85%30.31 "Hg10 mi
2:53 AM45 °FClear.5 mph86%30.30 "Hg10 mi
1:53 AM48 °FClear.3 mph77%30.30 "Hg10 mi
12:53 AM51 °FPassing clouds.8 mph66%30.28 "Hg10 mi
11:53 PM
Sat, Sep 24
50 °FPassing clouds.3 mph74%30.27 "Hg10 mi
10:53 PM51 °FPassing clouds.8 mph71%30.24 "Hg10 mi
9:53 PM54 °FOvercast.3 mph67%30.23 "Hg10 mi
8:53 PM54 °FOvercast.8 mph67%30.22 "Hg10 mi
7:53 PM55 °FOvercast.6 mph64%30.20 "Hg10 mi
Weather by CustomWeather, © 2016

See weather overviewHow to use our weather pages